Total_Precipitation_Accumulation
0.02 0.03 0.07 0.10 0.11 0.14 0.16 0.18 0.24 0.21 0.19 0.25 0.34 0.54 0.79 0.92 1.11 1.26 1.22 1.19 1.25 1.32 1.59 1.81 2.00 2.21 2.45 2.62 2.76 2.97 3.19 3.48 3.68 4.02 4.34 4.53 4.66 4.83 4.86 4.84 4.86 4.88 4.89 5.00
0.04 0.05 0.06 0.07 0.07 0.09 0.11 0.15 0.20 0.22 0.22 0.24 0.36 0.57 0.81 0.91 1.06 1.25 1.31 1.35 1.33 1.41 1.57 1.93 2.26 2.70 2.93 3.01 3.06 3.27 3.57 3.83 3.98 4.37 4.86 5.25 5.38 5.46 5.49 5.47 5.60 5.68 5.71 5.85
0.06 0.06 0.05 0.05 0.05 0.05 0.08 0.11 0.14 0.21 0.25 0.31 0.48 0.84 1.07 1.08 1.21 1.35 1.37 1.51 1.51 1.55 1.81 2.06 2.45 2.75 2.90 2.98 3.09 3.27 3.70 4.10 4.51 4.99 5.54 5.95 6.15 6.18 6.07 5.80 5.88 6.00 5.91 5.98
0.05 0.04 0.03 0.04 0.04 0.05 0.07 0.09 0.10 0.15 0.24 0.38 0.45 0.98 1.38 1.47 1.52 1.44 1.45 1.54 1.53 1.56 1.78 2.07 2.31 2.60 2.75 2.86 3.08 3.28 3.66 4.27 4.74 5.10 5.74 6.34 6.59 6.79 6.89 6.66 6.35 6.11 5.87 5.75
0.03 0.04 0.05 0.06 0.06 0.06 0.07 0.06 0.10 0.13 0.18 0.32 0.36 0.78 1.51 1.69 1.81 1.66 1.59 1.62 1.46 1.40 1.58 1.91 2.05 2.33 2.65 2.75 2.84 3.07 3.59 4.16 4.81 5.43 5.96 6.50 6.92 7.15 7.10 6.68 6.24 5.73 5.37 4.95
0.03 0.02 0.03 0.05 0.04 0.04 0.05 0.07 0.14 0.17 0.26 0.47 0.45 0.73 1.56 1.94 2.11 2.15 1.83 1.62 1.46 1.34 1.42 1.57 1.71 1.93 2.30 2.40 2.60 2.92 3.34 4.00 4.67 5.25 5.84 6.30 6.67 6.73 6.40 5.87 5.35 5.01 4.65 4.18
0.07 0.05 0.04 0.04 0.04 0.04 0.06 0.15 0.39 0.56 0.67 0.68 0.54 0.84 1.61 1.83 1.71 1.68 1.75 1.81 1.60 1.30 1.29 1.47 1.55 1.71 1.94 2.10 2.35 2.71 3.24 3.84 4.26 4.74 5.23 5.55 5.76 5.82 5.73 5.38 4.94 4.61 4.19 3.78
0.17 0.16 0.07 0.04 0.06 0.08 0.07 0.18 0.53 0.76 0.80 0.82 0.86 1.29 1.90 1.72 1.40 1.35 1.47 1.56 1.45 1.36 1.39 1.58 1.70 1.80 1.94 2.06 2.22 2.56 2.99 3.43 3.66 3.90 4.30 4.58 4.70 4.73 4.59 4.34 3.99 3.69 3.40 3.15
0.20 0.21 0.08 0.04 0.05 0.06 0.10 0.15 0.26 0.39 0.49 0.79 1.25 1.78 2.31 2.17 1.62 1.39 1.42 1.39 1.35 1.35 1.38 1.56 1.71 1.81 1.90 1.94 2.09 2.24 2.51 2.75 2.97 3.15 3.35 3.49 3.51 3.42 3.30 3.09 2.83 2.62 2.45 2.22
0.21 0.20 0.13 0.07 0.08 0.10 0.13 0.17 0.23 0.42 0.72 1.08 1.41 2.01 2.73 2.67 2.09 1.67 1.57 1.51 1.40 1.34 1.38 1.52 1.57 1.64 1.70 1.65 1.74 1.83 2.05 2.18 2.33 2.44 2.49 2.41 2.42 2.36 2.23 2.06 1.95 1.80 1.63 1.51
0.28 0.28 0.17 0.11 0.13 0.17 0.15 0.19 0.30 0.43 0.54 1.04 1.61 2.36 2.58 2.73 2.50 2.11 1.69 1.46 1.35 1.30 1.29 1.32 1.36 1.39 1.42 1.35 1.35 1.45 1.61 1.81 1.90 1.89 1.93 1.90 1.82 1.66 1.57 1.47 1.42 1.33 1.24 1.22
0.25 0.35 0.33 0.19 0.16 0.13 0.15 0.21 0.34 0.60 0.64 0.78 1.35 2.43 2.53 2.81 2.69 2.34 1.94 1.62 1.47 1.39 1.28 1.21 1.18 1.16 1.17 1.14 1.13 1.20 1.27 1.36 1.39 1.43 1.45 1.46 1.38 1.28 1.24 1.19 1.15 1.16 1.13 1.10
0.20 0.42 0.66 0.69 0.57 0.27 0.18 0.20 0.25 0.37 0.57 0.85 1.37 2.40 2.57 2.48 2.37 2.33 2.11 1.80 1.58 1.50 1.33 1.28 1.20 1.14 1.17 1.25 1.24 1.10 1.11 1.15 1.16 1.19 1.20 1.19 1.22 1.19 1.16 1.18 1.18 1.16 1.12 1.10
0.14 0.42 0.83 1.18 1.10 0.56 0.38 0.29 0.29 0.39 0.75 0.91 1.22 1.84 2.16 2.17 2.19 2.33 2.32 1.94 1.54 1.40 1.30 1.33 1.35 1.31 1.23 1.26 1.37 1.23 1.09 1.08 1.15 1.13 1.11 1.03 1.00 1.06 1.09 1.10 1.11 1.07 1.03 1.04
0.22 0.49 0.47 0.45 0.45 0.43 0.42 0.38 0.37 0.43 0.50 0.85 1.23 1.67 2.08 2.21 2.16 2.11 2.01 1.79 1.49 1.40 1.46 1.42 1.35 1.35 1.27 1.23 1.27 1.25 1.18 1.11 1.28 1.25 1.21 1.11 1.02 1.04 1.08 1.06 1.02 0.98 0.94 0.88
0.26 0.48 0.45 0.42 0.33 0.37 0.42 0.43 0.47 0.54 0.60 0.82 1.30 1.89 2.23 2.29 2.20 2.15 2.06 1.88 1.78 1.69 1.63 1.61 1.52 1.50 1.48 1.40 1.36 1.31 1.28 1.23 1.31 1.36 1.42 1.44 1.33 1.28 1.26 1.16 1.03 1.01 1.00 0.92
0.28 0.50 0.67 0.68 0.38 0.54 0.92 0.73 0.68 0.77 0.84 1.05 1.63 1.95 1.91 2.00 2.13 2.26 2.33 2.20 2.05 1.96 1.88 1.86 1.79 1.73 1.71 1.67 1.58 1.48 1.40 1.36 1.36 1.42 1.46 1.44 1.42 1.41 1.36 1.20 1.06 1.05 1.03 1.00
0.29 0.53 0.69 0.75 0.80 1.39 1.28 0.71 0.71 0.91 1.05 1.15 1.41 1.52 1.55 1.61 1.74 1.84 1.97 2.06 2.05 1.91 1.82 1.82 1.85 1.83 1.82 1.71 1.61 1.53 1.45 1.43 1.44 1.45 1.45 1.41 1.31 1.31 1.24 1.15 1.12 1.06 0.99 0.97
0.20 0.45 0.74 0.85 1.15 1.38 1.22 0.74 0.73 1.15 1.66 1.36 1.30 1.21 1.11 1.10 1.26 1.62 1.79 1.85 2.00 2.03 1.92 1.88 1.83 1.74 1.70 1.66 1.59 1.52 1.50 1.47 1.47 1.45 1.37 1.29 1.20 1.18 1.11 1.08 1.02 0.94 0.87 0.85
0.22 0.35 0.73 0.95 1.38 1.68 1.57 0.78 0.59 1.04 2.10 1.62 1.39 1.24 1.11 1.21 1.53 1.62 1.54 1.54 1.61 1.71 1.76 1.66 1.52 1.42 1.46 1.50 1.48 1.46 1.44 1.43 1.40 1.21 1.03 0.97 0.99 0.99 0.95 0.90 0.84 0.80 0.78 0.77
0.61 0.67 0.85 1.07 1.49 1.72 0.97 0.54 0.70 1.60 2.07 1.63 1.36 1.20 1.14 1.36 1.49 1.29 1.22 1.27 1.27 1.31 1.30 1.23 1.17 1.23 1.31 1.33 1.27 1.26 1.21 1.21 1.16 1.05 0.91 0.88 0.87 0.81 0.78 0.77 0.78 0.74 0.70 0.72
0.75 0.90 0.98 1.16 1.60 1.77 0.80 0.61 1.06 1.31 1.09 1.10 1.07 0.99 0.95 0.93 0.89 0.93 0.97 0.99 0.95 0.94 0.97 0.93 0.95 1.02 1.07 1.03 1.03 1.10 1.11 1.04 0.97 0.99 0.93 0.88 0.79 0.68 0.67 0.79 0.78 0.74 0.76 0.78
0.70 0.83 0.94 1.14 1.41 1.17 0.68 0.63 0.72 0.75 0.82 0.80 0.79 0.74 0.63 0.58 0.57 0.67 0.69 0.69 0.67 0.67 0.73 0.77 0.78 0.84 0.93 0.95 0.97 1.01 1.01 0.92 0.91 0.97 0.96 0.84 0.72 0.73 0.72 0.78 0.77 0.71 0.69 0.65
0.72 0.55 0.65 0.83 0.94 0.76 0.64 0.61 0.57 0.52 0.55 0.54 0.58 0.60 0.52 0.49 0.53 0.58 0.59 0.57 0.55 0.57 0.59 0.67 0.71 0.72 0.79 0.82 0.85 0.91 0.84 0.82 0.97 1.08 1.01 0.87 0.77 0.71 0.68 0.66 0.60 0.57 0.57 0.55
0.71 0.62 0.66 0.82 0.87 0.81 0.78 0.57 0.48 0.42 0.39 0.39 0.42 0.45 0.45 0.46 0.50 0.49 0.50 0.54 0.57 0.59 0.63 0.66 0.70 0.68 0.65 0.66 0.71 0.69 0.69 0.82 1.06 1.04 0.93 0.81 0.68 0.61 0.58 0.51 0.45 0.41 0.40 0.38
0.47 0.57 0.68 0.76 0.69 0.78 0.83 0.61 0.48 0.46 0.43 0.39 0.34 0.35 0.39 0.43 0.50 0.46 0.44 0.47 0.51 0.52 0.56 0.66 0.64 0.57 0.58 0.62 0.64 0.60 0.61 0.71 0.93 0.95 0.76 0.64 0.55 0.48 0.41 0.37 0.37 0.30 0.25 0.23